STARLINK-35884

Last updated on Fri Dec 19 2025 00:02:10 GMT+0000 (Coordinated Universal Time)

1 67044U 25294Q 25351.83335648 -.01355739 54798-3 -32062-2 0 9995 2 67044 43.0002 151.2704 0001748 278.0882 142.6454 15.95912018 2129
UTC large
Height (km)
Speed (km/s)
/
Latitude / Longitude
Inclination (degrees)
Orbital Period (minutes)
Azimuth
Elevation
Range (km)
Doppler Factor

Next 0 passes for location: London (51.5072 / 0.1276)

Sorry there are no passes over London.